Regional Weather Roundup
Issued by NWS

Home | Current Version | Previous Version | Graphics & Text | Print | Product List | Glossary On
Versions: 1 2 3 4 5 6 7 8 9 10 11 12 13 14 15 16 17 18 19 20 21 22 23 24 25 26 27 28 29 30 31 32 33 34 35 36 37 38 39 40 41 42 43 44 45 46 47 48 49 50
000
ASUS43 KIND 260009
RWRIN

WEATHER ROUNDUP FOR INDIANA
NATIONAL WEATHER SERVICE INDIANAPOLIS IN
800 PM EDT THU AUG 25 2016

NOTE: "FAIR" INDICATES FEW OR NO CLOUDS BELOW 12,000 FEET WITH NO
SIGNIFICANT WEATHER AND/OR OBSTRUCTIONS TO VISIBILITY.

* - STATION DOES NOT REPORT WEATHER SUCH AS PRECIPITATION OR FOG.

+ - STATION NOT QUALITY CONTROLLED BY THE NATIONAL WEATHER SERVICE.
    USE DATA WITH CAUTION...ESPECIALLY DEWPOINT AND RELATIVE
    HUMIDITY OBSERVATIONS.

INZ001>003-010>013-019-020-260100-
NORTHWEST INDIANA

CITY           SKY/WX    TMP DP  RH WIND       PRES   REMARKS
GARY /AIRPORT/ MOCLDY    79  73  83 CALM      30.03R
KNOX *+        MOCLDY    75  54  46 N3        30.02S
LA PORTE +     CLOUDY    78  75  91 CALM      30.04R
6HR MIN TEMP:  77; 6HR MAX TEMP:  82;

MICHIGAN CITY+ CLOUDY    75  70  83 CALM      30.03S
MONTICELLO +   PTCLDY    80  68  65 CALM      30.02S
6HR MIN TEMP:  80; 6HR MAX TEMP:  84;

RENSSELAER +   CLOUDY    77  72  83 SW3       30.03R
VALPARAISO     MOCLDY    77  72  84 N3        30.03S
6HR MIN TEMP:  76; 6HR MAX TEMP:  82; 6HR PCP:  0.03;


$$

LMZ046-743>745-260100-
SOUTHERN LAKE MICHIGAN

STATION/POSITION TIME  TEMP    WIND        PRES    WAVE
                       AIR SEA DIR/SP/G            HT
                 (UTC) (F)     (DEG/KT/KT) (MB)    (FT)
BURNS HARBOR     0000   75      50/  9/  9 1016.9S
MICHIGAN CITY    2300   74      30/  5/  6   N/A
5NW MICH CITY    0000   74 74   60/  6/  6   N/A     1

$$

INZ004-005-014>016-021>024-260100-
NORTH CENTRAL INDIANA

CITY           SKY/WX    TMP DP  RH WIND       PRES   REMARKS
ELKHART        PTCLDY    77  68  73 NW7       30.04R
GOSHEN         CLEAR     77  68  73 NW6       30.03R
6HR MIN TEMP:  77; 6HR MAX TEMP:  81;

LOGANSPORT +   CLEAR     79  70  73 W3        30.04S
PERU/GRISSOM   CLEAR     80  73  77 W6        30.02F
6HR MIN TEMP:  80; 6HR MAX TEMP:  86;

ROCHESTER +    CLEAR     81  73  78 SW5       30.04S
SOUTH BEND     CLOUDY    75  69  81 NW5       30.03F
6HR MIN TEMP:  74; 6HR MAX TEMP:  80; 6HR PCP: TRACE;

WARSAW +       PTCLDY    79  72  78 W6        30.03S

$$

INZ006>009-017-018-025>027-260100-
NORTHEAST INDIANA

CITY           SKY/WX    TMP DP  RH WIND       PRES   REMARKS
ANGOLA *+      CLEAR     79  72  78 W5        30.03S
AUBURN +       MOCLDY    79  68  69 CALM      30.04R
FORT WAYNE     PTCLDY    80  69  69 W8        30.03S
6HR MIN TEMP:  80; 6HR MAX TEMP:  86;

HUNTINGTON +   CLEAR    N/A N/A N/A W5        30.03S

$$

INZ028-029-035-036-043>045-051>053-260100-
WEST CENTRAL INDIANA

CITY           SKY/WX    TMP DP  RH WIND       PRES   REMARKS
CRAWFORDSVL +  CLEAR     79  74  84 CALM      30.04S
6HR MIN TEMP:  79; 6HR MAX TEMP:  84; 6HR PCP:  0.01;

GREENCASTLE +  CLEAR     79  77  94 CALM      30.05S
LAFAYETTE      PTCLDY    80  74  81 NW5       30.02S
6HR MIN TEMP:  80; 6HR MAX TEMP:  84;

TERRE HAUTE    CLEAR     84  74  71 S5        30.02F
6HR MIN TEMP:  83; 6HR MAX TEMP:  90;


$$

INZ030>032-037>040-046>048-054>057-064-065-260100-
CENTRAL INDIANA

CITY           SKY/WX    TMP DP  RH WIND       PRES   REMARKS
COLUMBUS       CLEAR     84  77  79 SW5       30.04F
INDIANAPOLIS   PTCLDY    83  71  67 SW8       30.04S
6HR MIN TEMP:  83; 6HR MAX TEMP:  90;

-EAGLE CREEK   CLEAR     84  71  65 CALM      30.04S
6HR MIN TEMP:  84; 6HR MAX TEMP:  88;

MARION +       CLEAR     80  71  74 W3        30.04S
MT COMFORT *+  PTCLDY    81  72  74 SW5       30.05S
SHELBYVILLE    CLEAR     84  73  69 W6        30.04S
6HR MIN TEMP:  84; 6HR MAX TEMP:  89;

ZIONSVILLE +   CLEAR     79  72  79 SW5       30.05F
6HR MIN TEMP:  79; 6HR MAX TEMP:  85;


$$

INZ033-034-041-042-049-050-058-059-260100-
EAST CENTRAL INDIANA

CITY           SKY/WX    TMP DP  RH WIND       PRES   REMARKS
MUNCIE         CLEAR     83  71  67 W8        30.04S
6HR MIN TEMP:  82; 6HR MAX TEMP:  88;


$$

INZ060-061-067>069-081>083-085>088-260100-
SOUTHWEST INDIANA

CITY           SKY/WX    TMP DP  RH WIND       PRES   REMARKS
EVANSVILLE     PTCLDY    85  71  63 SW6       30.04F
6HR MIN TEMP:  85; 6HR MAX TEMP:  92;

HUNTINGBURG *+ CLEAR     84  72  65 S7        30.04F
6HR MIN TEMP:  84; 6HR MAX TEMP:  91;

WASHINGTON +   CLEAR     86  74  67 MISG      30.03S
6HR MIN TEMP:  86; 6HR MAX TEMP:  91;


$$

INZ062-063-066-070>080-084-089>092-260100-
SOUTH CENTRAL AND SOUTHEAST INDIANA

CITY           SKY/WX    TMP DP  RH WIND       PRES   REMARKS
BLOOMINGTON    PTCLDY    82  76  81 CALM      30.05S
6HR MIN TEMP:  82; 6HR MAX TEMP:  88;

MADISON *+     CLEAR     82  73  74 CALM      30.08S

$$




USA.gov is the U.S. government's official web portal to all federal, state and local government web resources and services.